Regional Weather Roundup
Issued by NWS

Home | Current Version | Previous Version | Text Only | Print | Product List | Glossary On
Versions: 1 2 3 4 5 6 7 8 9 10 11 12 13 14 15 16 17 18 19 20 21 22 23 24 25 26 27 28 29 30 31 32 33 34 35 36 37 38 39 40 41 42 43 44 45 46 47 48 49 50
000
ASUS43 KDMX 161406
RWRIA

WEATHER ROUNDUP FOR IOWA
NATIONAL WEATHER SERVICE DES MOINES IA
900 AM CDT TUE APR 16 2024

NOTE: "FAIR" INDICATES FEW OR NO CLOUDS BELOW 12,000 FEET WITH NO
SIGNIFICANT WEATHER AND/OR OBSTRUCTIONS TO VISIBILITY.

* - THESE STATIONS ARE NOT NWS STATIONS...THUS NOT UNDER NWS
QUALITY CONTROL.  THEY ALSO DO NOT REPORT WEATHER SUCH
AS PRECIPITATION OR FOG.

IAZ001>003-012>014-020>022-031>034-043>046-161500-
   NORTHWEST IOWA

CITY           SKY/WX    TMP DP  RH WIND       PRES   REMARKS
CARROLL *      CLOUDY    61  57  88 SE26      29.50F TC  16
DENISON *      CLOUDY    61  61 100 SE13G24   29.48F TC  16
LE MARS *      CLOUDY   N/A N/A N/A E35G45    29.39F
MAURICE *      CLOUDY    57  57 100 E31G39    29.44F TC  14
SHELDON *      CLOUDY    55  55 100 SE26      29.51S TC  13
SIOUX CITY     CLOUDY    63  60  90 SE20G31   29.40F TC  17
STORM LAKE *   CLOUDY    55  55 100 SE16G23   29.54F FOG     TC  13
$$

IAZ055>058-069>071-079>083-090>094-161500-
   SOUTHWEST IOWA

CITY           SKY/WX    TMP DP  RH WIND       PRES   REMARKS
ATLANTIC *     LGT RAIN  64  63  94 SE16G24   29.42F TC  18
AUDUBON *      CLOUDY    61  59  94 E16       29.47F TC  16
CLARINDA *     HVY RAIN  64  64 100 W13G26    29.38F VSB 3/4 TC  18
COUNCIL BLFS * CLOUDY    64  64 100 SE16G26   29.37F FOG     TC  18
CRESTON *      CLOUDY    63  63 100 E26G37    29.45F TC  17
HARLAN  *      PTSUNNY   63  63 100 E15G21    29.43F FOG     TC  17
LAMONI         CLOUDY    65  62  90 SE18G31   29.54F TC  18
RED OAK *      LGT RAIN  64  64 100 SE22G31   29.41F TC  18
SHENANDOAH *   LGT RAIN  64  64 100 SE14G21   29.39F TC  18
$$

IAZ047>049-059>061-072>074-084-161500-
   CENTRAL IOWA

CITY           SKY/WX    TMP DP  RH WIND       PRES   REMARKS
AMES           LGT RAIN  60  52  74 SE18G28   29.59F TC  16
ANKENY *       LGT RAIN  61  55  82 E17G23    29.58F TC  16
BOONE *        CLOUDY    59  57  94 SE26G32   29.55F TC  15
CHARITON *     LGT RAIN  63  63 100 SE18      29.57F TC  17
DES MOINES     LGT RAIN  64  57  78 SE22G30   29.59F TC  18
GRINNELL*      LGT RAIN  61  52  71 E16G25    29.71F TC  16
KNOXVILLE *    CLOUDY    64  59  82 SE14G25   29.62F TC  18
MARSHALLTOWN   CLOUDY    60  45  57 SE26G36   29.67F TC  16
NEWTON *       MOSUNNY   59  59 100 E21G26    29.64F TC  15
PELLA *        LGT RAIN  61  56  83 SE13      29.65F TC  16
PERRY *        CLOUDY    62  56  82 SE23      29.54F TC  17
$$

IAZ004>006-015-016-023>025-035-036-161500-
   NORTH CENTRAL IOWA

CITY           SKY/WX    TMP DP  RH WIND       PRES   REMARKS
ALGONA *       PTSUNNY   50  48  93 SE22G38   29.61F TC  10
CLARION *      PTSUNNY   52  52 100 E28G37    29.60F TC  11
ESTHERVILLE    LGT RAIN  50  45  83 SE35G45   29.60F TC  10
FORT DODGE *   TSTM      53  49  86 SE14G25   29.59F FOG     TC  12
MASON CITY     TSTM      52  41  66 E25G37    29.71S TC  11
FOREST CITY *  LGT RAIN  46  45  93 E18G29    29.69F TC   8
WEBSTER CITY * CLOUDY    52  46  82 E23G31    29.58F TC  11
IOWA FALLS *   LGT RAIN  55  42  62 E25G33    29.67F TC  13
$$

IAZ007>011-017>019-026>030-037>042-050>054-066-161500-
   NORTHEAST IOWA

CITY           SKY/WX    TMP DP  RH WIND       PRES   REMARKS
CEDAR RAPIDS   CLOUDY    60  38  43 E22G32    29.77F TC  16
CHARLES CITY * CLOUDY    52  45  76 E33G41    29.72F TC  11
CLINTON *      CLOUDY    61  39  44 E25G31    29.86F TC  16
DECORAH *      CLOUDY    50  37  62 E22G28    29.82F TC  10
DUBUQUE        PTSUNNY   59  34  39 E21G33    29.86F TC  15
MONTICELLO *   CLOUDY    61  36  39 E23G29    29.80F TC  16
OELWEIN *      CLOUDY    57  37  47 E23G31    29.77F TC  14
WATERLOO       CLOUDY    58  39  49 E22G30    29.74F TC  14
$$

IAZ064-065-067-068-078-161500-
   EAST CENTRAL IOWA

CITY           SKY/WX    TMP DP  RH WIND       PRES   REMARKS
DAVENPORT      PTSUNNY   61  39  44 E21G28    29.86F TC  16
IOWA CITY      CLOUDY    63  43  48 E15G25    29.80F TC  17
MT. PLEASANT * CLOUDY    64  55  72 SE14      29.77F TC  18
MUSCATINE *    CLOUDY    64  46  52 E13G18    29.80F TC  18
QUAD CITIES    PTSUNNY   62  42  47 E17       29.84F TC  17
$$

IAZ062-063-075>077-085>089-095>099-161500-
   SOUTHEAST IOWA

CITY           SKY/WX    TMP DP  RH WIND       PRES   REMARKS
BURLINGTON     CLOUDY    65  57  75 SE10      29.78S TC  18
FAIRFIELD *    CLOUDY    66  55  68 SE17      29.73F TC  19
FORT MADISON * CLOUDY    66  59  77 SE12      29.76F TC  19
KEOKUK *       PTSUNNY   68  61  77 SE14      29.74F TC  20
OSKALOOSA *    CLOUDY    63  56  78 SE14      29.69F TC  17
OTTUMWA        LGT RAIN  62  57  83 E16       29.66F TC  17
WASHINGTON *   CLOUDY    64  48  55 SE13G20   29.76F TC  18
$$

ABBREVIATIONS USED IN REMARKS
   TC - TEMPERATURES IN CELSIUS
  WCI - WIND CHILL INDEX
   HX - HEAT INDEX
  VSB - VISIBILITY
$$




USA.gov is the U.S. government's official web portal to all federal, state and local government web resources and services.